Regional Weather Roundup
Issued by NWS

Home | Current Version | Previous Version | Text Only | Print | Product List | Glossary Off
Versions: 1 2 3 4 5 6 7 8 9 10 11 12 13 14 15 16 17 18 19 20 21 22 23 24 25 26 27 28 29 30 31 32 33 34 35 36 37 38 39 40 41 42 43 44 45 46 47 48 49 50

000
ASUS43 KLOT 221808
RWRIL

ILLINOIS REGIONAL WEATHER ROUNDUP
NATIONAL WEATHER SERVICE CHICAGO/ROMEOVILLE IL
1200 PM CST WED NOV 22 2017

NOTE: "FAIR" INDICATES FEW OR NO CLOUDS BELOW 12,000 FEET WITH NO
SIGNIFICANT WEATHER AND/OR OBSTRUCTIONS TO VISIBILITY.

* THESE STATIONS ARE NOT UNDER NWS QUALITY CONTROL. THEY ALSO MAY NOT
  REPORT WEATHER SUCH AS PRECIPITATION OR FOG.

ILZ001-002-007-009-015-016-024-221900-
NORTHWEST ILLINOIS

CITY           SKY/WX    TMP DP  RH WIND       PRES   REMARKS
MOLINE         SUNNY     33  15  47 SW9       30.35F WCI  25
6HR MIN TEMP:  18; 6HR MAX TEMP:  34;

STERLING*      SUNNY     31  18  58 SW7       30.36F WCI  24
SAVANNA*       SUNNY     31  16  54 S7        30.36F WCI  25
$$

ILZ003-004-008-010-011-017-018-221900-
NORTH CENTRAL ILLINOIS

CITY           SKY/WX    TMP DP  RH WIND       PRES   REMARKS
ROCKFORD       SUNNY     31  14  49 W7        30.36F WCI  24
6HR MIN TEMP:  18; 6HR MAX TEMP:  31;

FREEPORT*      SUNNY     29  15  54 W9        30.36F WCI  21
ROCHELLE*      SUNNY     29  17  58 SW7       30.34F WCI  22
DE KALB*       SUNNY     30  15  53 W8        30.34F WCI  23
PERU*          SUNNY     31  14  49 SW5       30.36F WCI  26
$$

ILZ005-006-012>014-019>023-221900-
NORTHEAST ILLINOIS

CITY           SKY/WX    TMP DP  RH WIND       PRES   REMARKS
CHICAGO-OHARE  MOSUNNY   32  14  47 W8        30.33F WCI  25
6HR MIN TEMP:  22; 6HR MAX TEMP:  32;

CHICAGO-MIDWAY MOSUNNY   32  15  49 W8        30.34F WCI  25
6HR MIN TEMP:  23; 6HR MAX TEMP:  32;

AURORA         SUNNY     31  16  54 W8        30.35F WCI  23
6HR MIN TEMP:  16; 6HR MAX TEMP:  31;

LANSING*       SUNNY     33  19  56 W7        30.34F WCI  27
JOLIET*        SUNNY     32  16  51 W8        30.36F WCI  25
WAUKEGAN       SUNNY     31  16  54 VRB6      30.32F WCI  25
6HR MIN TEMP:  18; 6HR MAX TEMP:  32;

DUPAGE AIRPORT SUNNY     31  15  52 W8        30.33F WCI  23
6HR MIN TEMP:  18; 6HR MAX TEMP:  31;

KANKAKEE*      SUNNY     33  18  54 W6        30.36F WCI  27
WHEELING       SUNNY     32  17  54 W7        30.35F WCI  26
6HR MIN TEMP:  21; 6HR MAX TEMP:  32;

MORRIS*        SUNNY     32  17  53 W6        30.35F WCI  26
ROMEOVILLE*    SUNNY     32  17  54 W8        30.34F WCI  25
NORTHERLY ISL    N/A     32  16  52 W6          N/A  WCI  26
$$

LMZ740>746-221900-
SOUTHERN LAKE MICHIGAN

STATION/POSITION SKY/WX   TEMP    WIND        PRES    VSBY  WAVE
                          AIR SEA DIR/SP/G                  HT/PER
                          (F)     (DEG/KT/KT) (MB)    (MI)  (FT/S)
SOUTHERN BUOY              31 47  320/  2/  6 1027.7          3/ 6
HARRISON CRIB              30     290/  6/  7   N/A
BURNHAM HARBOR             31     180/  5/  8   N/A
CALUMET HARBOR             32     220/  4/  7 1026.6F
BURNS HARBOR               31     290/  8/ 10 1027.8F
MICHIGAN CITY              32     260/ 14/ 16   N/A
$$

ILZ025>027-034>036-040-047-049-050-058-095>099-221900-
WEST-CENTRAL ILLINOIS

CITY           SKY/WX    TMP DP  RH WIND       PRES   REMARKS
QUINCY         SUNNY     32  16  51 S7        30.37F WCI  26
GALESBURG*     SUNNY     33  18  55 SW6       30.36F WCI  27
MACOMB*        SUNNY     33  18  53 CALM      30.38F
JACKSONVILLE*  SUNNY     32  17  53 NW7       30.38F WCI  26
PITTSFIELD*    SUNNY     34  19  54 W3        30.38F
$$

ILZ028>032-037-038-041>044-048-051>054-059>061-221900-
CENTRAL ILLINOIS

CITY           SKY/WX    TMP DP  RH WIND       PRES   REMARKS
PONTIAC        SUNNY     33  16  49 W5        30.37F WCI  28
BLOOMINGTON    SUNNY     34  14  43 NW7       30.36F WCI  28
DECATUR        SUNNY     34  16  47 VRB3      30.36F
PEORIA         SUNNY     34  15  46 W6        30.37F WCI  29
6HR MIN TEMP:  19; 6HR MAX TEMP:  34;

LACON*         SUNNY     32  16  51 CALM      30.36F
LINCOLN*       SUNNY     34  19  55 W3        30.38F
SPRINGFIELD    SUNNY     35  19  52 NW3       30.39F
6HR MIN TEMP:  21; 6HR MAX TEMP:  36;

TAYLORVILLE    SUNNY     32  17  55 N5        30.37F WCI  27
6HR MIN TEMP:  22; 6HR MAX TEMP:  33;

$$

ILZ033-039-045-046-055>057-062-063-221900-
EAST-CENTRAL ILLINOIS

CITY           SKY/WX    TMP DP  RH WIND       PRES   REMARKS
CHAMPAIGN      SUNNY     35  19  52 NW8       30.35F WCI  29
DANVILLE*      SUNNY     33  22  62 CALM      30.32F
RANTOUL*       SUNNY     34  22  61 NW3       30.35F
MATTOON        SUNNY     34  19  54 VRB5      30.35F WCI  30
PARIS*         SUNNY     34  24  67 W6        30.36F WCI  28
$$

ILZ079-100>102-221900-
SOUTHWEST ILLINOIS

CITY           SKY/WX    TMP DP  RH WIND       PRES   REMARKS
ALTON          SUNNY     36  21  55 NW6       30.39F WCI  31
BELLEVILLE     SUNNY     37  19  46 N5        30.37F WCI  34
CAHOKIA*       SUNNY     36  18  48 CALM      30.38F
SPARTA*        SUNNY     34  22  61 NW7       30.37F WCI  28
$$

ILZ064>066-069>071-074>076-080>082-084>086-088>090-092>094-221900-
SOUTH-CENTRAL ILLINOIS

CITY           SKY/WX    TMP DP  RH WIND       PRES   REMARKS
CARBONDALE     SUNNY     37  21  52 N12       30.36F WCI  29
6HR MIN TEMP:  25; 6HR MAX TEMP:  38;

CAIRO*         SUNNY     39  23  51 NE6       30.33F WCI  35
EFFINGHAM*     SUNNY     36  22  57 NW7       30.38F WCI  30
MARION         SUNNY     37  21  52 NW8       30.36F WCI  31
MT. VERNON     SUNNY     37  20  50 VRB6      30.35F WCI  32
CENTRALIA*     SUNNY     36  22  56 CALM      30.35F
SALEM*         SUNNY     37  19  48 NW3       30.35F
METROPOLIS*    SUNNY     40  22  46 CALM      30.34F
$$

ILZ067-068-072-073-078-083-087-091-221900-
SOUTHEAST ILLINOIS

CITY           SKY/WX    TMP DP  RH WIND       PRES   REMARKS
LAWRENCEVILLE  SUNNY     38  23  55 N6        30.35F WCI  33
FLORA*         SUNNY     36  21  54 N7        30.36F WCI  31
FAIRFIELD*     SUNNY     36  20  51 CALM      30.35F
HARRISBURG*    SUNNY     38  22  53 N6        30.35F WCI  33
ROBINSON*      SUNNY     35  21  56 NW3       30.36F
CARMI*         SUNNY     38  22  52 N12       30.35F WCI  30
$$

ABBREVIATIONS USED IN REMARKS
   TC - TEMPERATURE IN CELSIUS
  WCI - WIND CHILL INDEX
   HX - HEAT INDEX
  VSB - VISIBILITY
$$





USA.gov is the U.S. government's official web portal to all federal, state and local government web resources and services.